Portada
METAR-TAF:

METAR-TAF

Aeroports :

Griffith, Austràlia

latitud: 34-15-06S, longitud: 146-04-00E, altitud: 134 m

Observació

L'informe es va fer fa 1 hora i 15 minuts, a les 19:00 UTC
Vent 6 kt del Nord/Nord-Oest
Temperatura 10°C
Humitat 82%
Pressió 1017 hPa
Visibilitat 10 km o més

METAR: YGTH 131900Z AUTO 33006KT 9999 // NCD 10/07 Q1017

Hora: 07:15 (20:15 UTC)


TAF: manca

Observacions i pronòstics meteorològics de més de 4000 aeroports (METAR i TAF).

Les estacions disponibles són els punts grocs i vermells al mapa.

Posi el ratolí al punt desitjat per veure el nom de l'estació.

Feu clic per veure les observacions i els pronòstics meteorològics.

Per canviar el mapa: feu clic els botons verds amb una creu de color negre per apropar; al botó verd amb un guió per allunyar la imatge; o en les fletxes verdes per a mapes adjacents.


METAR-TAF: